Location: Passau
(48.5830°N, 13.4830°E)
Time: 05:22:32
(UTC+02:00)

Vanguard 1 - Pass Details

Date: 01 August 2021
Orbit: 652 x 3831 km, 34.3° (Epoch: 16 September)

Event Time Altitude Azimuth Distance (km) Brightness Sun altitude
Rises 12:52:48 0° 234° (SW) 3,184 12.9 59.1°
Reaches altitude 10° 12:55:17 10° 220° (SW) 2,452 12.6 59.1°
Maximum altitude 12:59:48 24° 166° (SSE) 2,049 12.8 59.2°
Drops below altitude 10° 13:06:21 10° 117° (ESE) 3,671 13.4 59.3°
Sets 13:11:06 0° 106° (ESE) 5,237 13.9 59.3°
